Time,TemperatureF,DewpointF,PressureIn,WindDirection,WindDirectionDegrees,WindSpeedMPH,WindSpeedGustMPH,Humidity,HourlyPrecipIn,Conditions,Clouds,dailyrainin,SoftwareType,DateUTC
2013-12-08 00:00:00,25.4,14.9,30.27,SW,229,4.0,4.0,64,0.00,,,0.00,Wunderground v.1.15,2013-12-08 04:00:00,
2013-12-08 00:10:00,25.3,15.2,30.27,SW,219,3.0,3.0,65,0.00,,,0.00,Wunderground v.1.15,2013-12-08 04:10:00,
2013-12-08 00:20:00,25.2,15.4,30.28,West,261,4.0,15.0,66,0.00,,,0.00,Wunderground v.1.15,2013-12-08 04:20:00,
2013-12-08 00:30:00,25.0,15.2,30.27,West,264,3.0,15.0,66,0.00,,,0.00,Wunderground v.1.15,2013-12-08 04:30:00,
2013-12-08 00:40:00,25.0,15.2,30.27,West,265,4.0,15.0,66,0.00,,,0.00,Wunderground v.1.15,2013-12-08 04:40:00,
2013-12-08 00:50:00,24.8,15.4,30.27,SSW,210,4.0,15.0,67,0.00,,,0.00,Wunderground v.1.15,2013-12-08 04:50:00,
2013-12-08 01:00:00,24.8,15.4,30.28,SW,226,4.0,15.0,67,0.00,,,0.00,Wunderground v.1.15,2013-12-08 05:00:00,
2013-12-08 01:10:00,24.9,15.8,30.28,West,277,3.0,3.0,68,0.00,,,0.00,Wunderground v.1.15,2013-12-08 05:10:00,
2013-12-08 01:20:00,25.0,15.6,30.28,SW,225,4.0,15.0,67,0.00,,,0.00,Wunderground v.1.15,2013-12-08 05:20:00,
2013-12-08 01:30:00,24.9,15.5,30.28,WNW,295,4.0,4.0,67,0.00,,,0.00,Wunderground v.1.15,2013-12-08 05:30:00,
2013-12-08 01:40:00,24.8,15.4,30.28,SW,215,3.0,15.0,67,0.00,,,0.00,Wunderground v.1.15,2013-12-08 05:40:00,
2013-12-08 01:50:00,24.7,15.6,30.29,West,273,4.0,4.0,68,0.00,,,0.00,Wunderground v.1.15,2013-12-08 05:50:00,
2013-12-08 02:00:00,24.7,16.0,30.29,West,266,3.0,15.0,69,0.00,,,0.00,Wunderground v.1.15,2013-12-08 06:00:00,
2013-12-08 02:10:00,24.4,15.3,30.30,SW,225,4.0,15.0,68,0.00,,,0.00,Wunderground v.1.15,2013-12-08 06:10:00,
2013-12-08 02:20:00,24.2,15.5,30.30,SSW,204,3.0,3.0,69,0.00,,,0.00,Wunderground v.1.15,2013-12-08 06:20:00,
2013-12-08 02:30:00,23.9,15.5,30.30,West,278,3.0,15.0,70,0.00,,,0.00,Wunderground v.1.15,2013-12-08 06:30:00,
2013-12-08 02:40:00,23.8,15.4,30.30,WSW,248,3.0,15.0,70,0.00,,,0.00,Wunderground v.1.15,2013-12-08 06:40:00,
2013-12-08 02:50:00,23.7,15.3,30.30,WSW,253,4.0,15.0,70,0.00,,,0.00,Wunderground v.1.15,2013-12-08 06:50:00,
2013-12-08 03:00:00,23.6,15.2,30.30,West,279,4.0,4.0,70,0.00,,,0.00,Wunderground v.1.15,2013-12-08 07:00:00,
2013-12-08 03:10:00,23.5,15.1,30.31,SW,222,4.0,4.0,70,0.00,,,0.00,Wunderground v.1.15,2013-12-08 07:10:00,
2013-12-08 03:20:00,23.3,15.3,30.31,SW,231,4.0,4.0,71,0.00,,,0.00,Wunderground v.1.15,2013-12-08 07:20:00,
2013-12-08 03:30:00,23.1,15.1,30.31,SW,222,4.0,4.0,71,0.00,,,0.00,Wunderground v.1.15,2013-12-08 07:30:00,
2013-12-08 03:40:00,22.9,15.2,30.31,WSW,252,3.0,3.0,72,0.00,,,0.00,Wunderground v.1.15,2013-12-08 07:40:00,
2013-12-08 03:50:00,22.8,15.1,30.31,West,274,4.0,4.0,72,0.00,,,0.00,Wunderground v.1.15,2013-12-08 07:50:00,
2013-12-08 04:00:00,22.7,15.0,30.32,NW,310,3.0,3.0,72,0.00,,,0.00,Wunderground v.1.15,2013-12-08 08:00:00,
2013-12-08 04:10:00,22.6,14.9,30.32,West,267,3.0,3.0,72,0.00,,,0.00,Wunderground v.1.15,2013-12-08 08:10:00,
2013-12-08 04:20:00,22.6,14.9,30.33,West,277,4.0,4.0,72,0.00,,,0.00,Wunderground v.1.15,2013-12-08 08:20:00,
2013-12-08 04:30:00,22.5,14.8,30.33,West,281,3.0,3.0,72,0.00,,,0.00,Wunderground v.1.15,2013-12-08 08:30:00,
2013-12-08 04:40:00,22.4,14.7,30.34,SW,221,2.0,15.0,72,0.00,,,0.00,Wunderground v.1.15,2013-12-08 08:40:00,
2013-12-08 04:50:00,22.4,14.7,30.34,West,259,3.0,3.0,72,0.00,,,0.00,Wunderground v.1.15,2013-12-08 08:50:00,
2013-12-08 05:00:00,22.3,15.0,30.34,West,277,3.0,3.0,73,0.00,,,0.00,Wunderground v.1.15,2013-12-08 09:00:00,
2013-12-08 05:10:00,22.1,14.8,30.34,West,265,4.0,4.0,73,0.00,,,0.00,Wunderground v.1.15,2013-12-08 09:10:00,
2013-12-08 05:20:00,22.1,15.1,30.34,SW,225,3.0,15.0,74,0.00,,,0.00,Wunderground v.1.15,2013-12-08 09:20:00,
2013-12-08 05:30:00,22.0,15.0,30.35,SW,236,4.0,15.0,74,0.00,,,0.00,Wunderground v.1.15,2013-12-08 09:30:00,
2013-12-08 05:40:00,21.9,14.9,30.35,WNW,284,3.0,3.0,74,0.00,,,0.00,Wunderground v.1.15,2013-12-08 09:40:00,
2013-12-08 05:50:00,21.8,15.1,30.35,WNW,283,3.0,15.0,75,0.00,,,0.00,Wunderground v.1.15,2013-12-08 09:50:00,
2013-12-08 06:00:00,21.7,15.0,30.36,WSW,249,3.0,15.0,75,0.00,,,0.00,Wunderground v.1.15,2013-12-08 10:00:00,
2013-12-08 06:10:00,21.7,15.0,30.36,SSW,201,3.0,15.0,75,0.00,,,0.00,Wunderground v.1.15,2013-12-08 10:10:00,
2013-12-08 06:20:00,21.7,15.0,30.37,WNW,297,4.0,4.0,75,0.00,,,0.00,Wunderground v.1.15,2013-12-08 10:20:00,
2013-12-08 06:30:00,21.6,14.9,30.38,West,266,3.0,15.0,75,0.00,,,0.00,Wunderground v.1.15,2013-12-08 10:30:00,
2013-12-08 06:40:00,21.6,14.9,30.38,WSW,252,4.0,4.0,75,0.00,,,0.00,Wunderground v.1.15,2013-12-08 10:40:00,
2013-12-08 06:50:00,21.6,14.9,30.38,SW,236,3.0,15.0,75,0.00,,,0.00,Wunderground v.1.15,2013-12-08 10:50:00,
2013-12-08 07:00:00,21.5,14.8,30.38,West,269,3.0,15.0,75,0.00,,,0.00,Wunderground v.1.15,2013-12-08 11:00:00,
2013-12-08 07:10:00,21.5,14.8,30.39,WSW,243,4.0,4.0,75,0.00,,,0.00,Wunderground v.1.15,2013-12-08 11:10:00,
2013-12-08 07:20:00,21.6,14.9,30.40,WSW,255,4.0,4.0,75,0.00,,,0.00,Wunderground v.1.15,2013-12-08 11:20:00,
2013-12-08 07:30:00,21.5,15.1,30.40,West,278,3.0,15.0,76,0.00,,,0.00,Wunderground v.1.15,2013-12-08 11:30:00,
2013-12-08 07:40:00,21.4,15.0,30.40,WSW,245,3.0,3.0,76,0.00,,,0.00,Wunderground v.1.15,2013-12-08 11:40:00,
2013-12-08 07:50:00,21.3,14.9,30.41,WSW,249,3.0,3.0,76,0.00,,,0.00,Wunderground v.1.15,2013-12-08 11:50:00,
2013-12-08 08:00:00,21.4,15.0,30.41,West,269,3.0,3.0,76,0.00,,,0.00,Wunderground v.1.15,2013-12-08 12:00:00,
2013-12-08 08:10:00,21.6,15.2,30.42,WNW,290,4.0,15.0,76,0.00,,,0.00,Wunderground v.1.15,2013-12-08 12:10:00,
2013-12-08 08:20:00,22.1,15.1,30.42,West,264,3.0,15.0,74,0.00,,,0.00,Wunderground v.1.15,2013-12-08 12:20:00,
2013-12-08 08:30:00,22.4,15.1,30.42,West,276,3.0,15.0,73,0.00,,,0.00,Wunderground v.1.15,2013-12-08 12:30:00,
2013-12-08 08:40:00,22.8,15.1,30.42,West,276,4.0,4.0,72,0.00,,,0.00,Wunderground v.1.15,2013-12-08 12:40:00,
2013-12-08 08:50:00,23.1,15.4,30.42,WSW,240,3.0,15.0,72,0.00,,,0.00,Wunderground v.1.15,2013-12-08 12:50:00,
2013-12-08 09:00:00,23.4,15.4,30.42,SW,228,3.0,15.0,71,0.00,,,0.00,Wunderground v.1.15,2013-12-08 13:00:00,
2013-12-08 09:10:00,23.5,15.1,30.43,WSW,255,4.0,4.0,70,0.00,,,0.00,Wunderground v.1.15,2013-12-08 13:10:00,
2013-12-08 09:20:00,23.8,15.1,30.43,SSW,212,4.0,4.0,69,0.00,,,0.00,Wunderground v.1.15,2013-12-08 13:20:00,
2013-12-08 09:30:00,24.0,15.3,30.44,West,281,4.0,4.0,69,0.00,,,0.00,Wunderground v.1.15,2013-12-08 13:30:00,
2013-12-08 09:40:00,24.3,15.3,30.44,West,280,4.0,4.0,68,0.00,,,0.00,Wunderground v.1.15,2013-12-08 13:40:00,
2013-12-08 09:50:00,24.5,15.4,30.44,WSW,252,3.0,15.0,68,0.00,,,0.00,Wunderground v.1.15,2013-12-08 13:50:00,
2013-12-08 10:00:00,24.7,15.6,30.44,SSW,197,3.0,15.0,68,0.00,,,0.00,Wunderground v.1.15,2013-12-08 14:00:00,
2013-12-08 10:10:00,24.7,15.3,30.45,WNW,285,4.0,15.0,67,0.00,,,0.00,Wunderground v.1.15,2013-12-08 14:10:00,
2013-12-08 10:20:00,24.7,15.3,30.45,West,277,5.0,5.0,67,0.00,,,0.00,Wunderground v.1.15,2013-12-08 14:20:00,
2013-12-08 10:30:00,25.0,15.2,30.45,NW,307,4.0,4.0,66,0.00,,,0.00,Wunderground v.1.15,2013-12-08 14:30:00,
2013-12-08 10:40:00,25.1,15.0,30.45,SSW,212,5.0,15.0,65,0.00,,,0.00,Wunderground v.1.15,2013-12-08 14:40:00,
2013-12-08 10:50:00,24.7,14.9,30.45,SSW,207,5.0,15.0,66,0.00,,,0.00,Wunderground v.1.15,2013-12-08 14:50:00,
2013-12-08 11:00:00,24.9,14.8,30.45,WSW,255,4.0,15.0,65,0.00,,,0.00,Wunderground v.1.15,2013-12-08 15:00:00,
2013-12-08 11:10:00,24.8,14.7,30.45,NW,316,5.0,15.0,65,0.00,,,0.00,Wunderground v.1.15,2013-12-08 15:10:00,
2013-12-08 11:20:00,25.0,14.9,30.45,SSE,155,4.0,4.0,65,0.00,,,0.00,Wunderground v.1.15,2013-12-08 15:20:00,
2013-12-08 11:30:00,25.0,15.2,30.45,West,272,3.0,15.0,66,0.00,,,0.00,Wunderground v.1.15,2013-12-08 15:30:00,
2013-12-08 11:40:00,25.1,14.3,30.45,West,267,4.0,4.0,63,0.00,,,0.00,Wunderground v.1.15,2013-12-08 15:40:00,
2013-12-08 11:50:00,25.2,14.7,30.45,West,263,4.0,15.0,64,0.00,,,0.00,Wunderground v.1.15,2013-12-08 15:50:00,
2013-12-08 12:00:00,25.4,14.9,30.45,WNW,283,4.0,4.0,64,0.00,,,0.00,Wunderground v.1.15,2013-12-08 16:00:00,
2013-12-08 12:10:00,24.9,14.4,30.44,SW,221,6.0,6.0,64,0.00,,,0.00,Wunderground v.1.15,2013-12-08 16:10:00,
2013-12-08 12:20:00,24.1,13.7,30.44,SSW,211,4.0,4.0,64,0.00,,,0.00,Wunderground v.1.15,2013-12-08 16:20:00,
2013-12-08 12:30:00,24.3,14.2,30.44,West,267,5.0,5.0,65,0.00,,,0.00,Wunderground v.1.15,2013-12-08 16:30:00,
2013-12-08 12:40:00,24.3,14.2,30.44,WNW,285,4.0,15.0,65,0.00,,,0.00,Wunderground v.1.15,2013-12-08 16:40:00,
2013-12-08 12:50:00,25.0,14.9,30.45,WSW,250,3.0,15.0,65,0.00,,,0.00,Wunderground v.1.15,2013-12-08 16:50:00,
2013-12-08 13:00:00,25.6,15.5,30.45,WNW,296,3.0,3.0,65,0.00,,,0.00,Wunderground v.1.15,2013-12-08 17:00:00,
2013-12-08 13:10:00,25.4,14.5,30.45,West,268,4.0,15.0,63,0.00,,,0.00,Wunderground v.1.15,2013-12-08 17:10:00,
2013-12-08 13:20:00,24.9,14.1,30.45,West,261,4.0,4.0,63,0.00,,,0.00,Wunderground v.1.15,2013-12-08 17:20:00,
2013-12-08 13:30:00,24.9,14.4,30.45,WSW,243,3.0,15.0,64,0.00,,,0.00,Wunderground v.1.15,2013-12-08 17:30:00,
2013-12-08 13:40:00,25.1,14.3,30.46,SW,217,3.0,15.0,63,0.00,,,0.00,Wunderground v.1.15,2013-12-08 17:40:00,
2013-12-08 13:50:00,25.8,14.6,30.46,South,177,2.0,2.0,62,0.00,,,0.00,Wunderground v.1.15,2013-12-08 17:50:00,
2013-12-08 14:00:00,25.4,13.8,30.46,WNW,283,4.0,4.0,61,0.00,,,0.00,Wunderground v.1.15,2013-12-08 18:00:00,
2013-12-08 14:10:00,24.9,13.3,30.46,South,188,4.0,4.0,61,0.00,,,0.00,Wunderground v.1.15,2013-12-08 18:10:00,
2013-12-08 14:20:00,25.2,13.6,30.47,WSW,248,3.0,15.0,61,0.00,,,0.00,Wunderground v.1.15,2013-12-08 18:20:00,
2013-12-08 14:30:00,25.0,13.1,30.47,SW,222,4.0,15.0,60,0.00,,,0.00,Wunderground v.1.15,2013-12-08 18:30:00,
2013-12-08 14:40:00,25.2,13.6,30.47,WNW,296,4.0,4.0,61,0.00,,,0.00,Wunderground v.1.15,2013-12-08 18:40:00,
2013-12-08 14:50:00,25.3,13.3,30.47,SW,231,3.0,3.0,60,0.00,,,0.00,Wunderground v.1.15,2013-12-08 18:50:00,
2013-12-08 15:00:00,25.3,13.7,30.47,West,277,3.0,15.0,61,0.00,,,0.00,Wunderground v.1.15,2013-12-08 19:00:00,
2013-12-08 15:10:00,25.2,13.2,30.47,West,276,3.0,15.0,60,0.00,,,0.00,Wunderground v.1.15,2013-12-08 19:10:00,
2013-12-08 15:20:00,24.9,13.3,30.47,SW,235,3.0,3.0,61,0.00,,,0.00,Wunderground v.1.15,2013-12-08 19:20:00,
2013-12-08 15:30:00,25.0,13.4,30.48,SW,224,3.0,15.0,61,0.00,,,0.00,Wunderground v.1.15,2013-12-08 19:30:00,
2013-12-08 15:40:00,24.7,13.1,30.49,SW,233,3.0,15.0,61,0.00,,,0.00,Wunderground v.1.15,2013-12-08 19:40:00,
2013-12-08 15:50:00,24.0,12.5,30.49,WSW,250,4.0,4.0,61,0.00,,,0.00,Wunderground v.1.15,2013-12-08 19:50:00,
2013-12-08 16:00:00,23.7,12.6,30.50,WSW,246,2.0,15.0,62,0.00,,,0.00,Wunderground v.1.15,2013-12-08 20:00:00,
2013-12-08 16:10:00,23.5,12.4,30.50,SSW,193,3.0,15.0,62,0.00,,,0.00,Wunderground v.1.15,2013-12-08 20:10:00,
2013-12-08 16:20:00,23.3,12.2,30.50,SSW,199,3.0,3.0,62,0.00,,,0.00,Wunderground v.1.15,2013-12-08 20:20:00,
2013-12-08 16:30:00,23.0,11.9,30.50,WSW,252,2.0,15.0,62,0.00,,,0.00,Wunderground v.1.15,2013-12-08 20:30:00,
2013-12-08 16:40:00,22.9,11.8,30.51,West,271,3.0,3.0,62,0.00,,,0.00,Wunderground v.1.15,2013-12-08 20:40:00,
2013-12-08 16:50:00,22.8,12.1,30.51,WSW,255,2.0,15.0,63,0.00,,,0.00,Wunderground v.1.15,2013-12-08 20:50:00,
2013-12-08 17:00:00,22.8,11.3,30.51,WSW,257,3.0,3.0,61,0.00,,,0.00,Wunderground v.1.15,2013-12-08 21:00:00,
2013-12-08 17:10:00,22.6,11.5,30.52,SW,224,2.0,15.0,62,0.00,,,0.00,Wunderground v.1.15,2013-12-08 21:10:00,
2013-12-08 17:20:00,22.7,11.6,30.52,WSW,243,4.0,15.0,62,0.00,,,0.00,Wunderground v.1.15,2013-12-08 21:20:00,
2013-12-08 17:30:00,22.8,11.7,30.53,SSW,205,2.0,15.0,62,0.00,,,0.00,Wunderground v.1.15,2013-12-08 21:30:00,
2013-12-08 17:40:00,23.1,12.0,30.53,WNW,285,3.0,3.0,62,0.00,,,0.00,Wunderground v.1.15,2013-12-08 21:40:00,
2013-12-08 17:50:00,23.1,12.0,30.53,SSW,204,3.0,3.0,62,0.00,,,0.00,Wunderground v.1.15,2013-12-08 21:50:00,
2013-12-08 18:00:00,23.0,11.9,30.54,SW,221,2.0,15.0,62,0.00,,,0.00,Wunderground v.1.15,2013-12-08 22:00:00,
2013-12-08 18:10:00,22.9,11.8,30.54,West,278,3.0,3.0,62,0.00,,,0.00,Wunderground v.1.15,2013-12-08 22:10:00,
2013-12-08 18:20:00,22.7,11.6,30.54,SW,226,2.0,15.0,62,0.00,,,0.00,Wunderground v.1.15,2013-12-08 22:20:00,
2013-12-08 18:30:00,22.7,11.6,30.54,West,281,3.0,3.0,62,0.00,,,0.00,Wunderground v.1.15,2013-12-08 22:30:00,
2013-12-08 18:40:00,22.6,11.5,30.54,WSW,245,3.0,15.0,62,0.00,,,0.00,Wunderground v.1.15,2013-12-08 22:40:00,
2013-12-08 18:50:00,22.5,11.4,30.54,WSW,257,3.0,15.0,62,0.00,,,0.00,Wunderground v.1.15,2013-12-08 22:50:00,
2013-12-08 19:00:00,22.5,10.7,30.54,West,274,3.0,15.0,60,0.00,,,0.00,Wunderground v.1.15,2013-12-08 23:00:00,
2013-12-08 19:10:00,22.5,10.7,30.55,South,187,2.0,15.0,60,0.00,,,0.00,Wunderground v.1.15,2013-12-08 23:10:00,
2013-12-08 19:20:00,22.5,10.3,30.54,WNW,284,3.0,3.0,59,0.00,,,0.00,Wunderground v.1.15,2013-12-08 23:20:00,
2013-12-08 19:30:00,22.5,10.7,30.55,WSW,239,3.0,15.0,60,0.00,,,0.00,Wunderground v.1.15,2013-12-08 23:30:00,
2013-12-08 19:40:00,22.5,11.1,30.56,SSW,200,3.0,15.0,61,0.00,,,0.00,Wunderground v.1.15,2013-12-08 23:40:00,
2013-12-08 19:50:00,22.7,12.0,30.57,WNW,283,2.0,15.0,63,0.00,,,0.00,Wunderground v.1.15,2013-12-08 23:50:00,
2013-12-08 20:10:00,22.2,14.2,30.58,WNW,291,4.0,15.0,71,0.00,,,0.00,Wunderground v.1.15,2013-12-09 00:10:00,
2013-12-08 20:20:00,21.9,14.3,30.59,WNW,284,4.0,15.0,72,0.00,,,0.00,Wunderground v.1.15,2013-12-09 00:20:00,
2013-12-08 20:30:00,21.1,15.0,30.58,WNW,284,3.0,15.0,77,0.00,,,0.00,Wunderground v.1.15,2013-12-09 00:30:00,
2013-12-08 20:40:00,21.3,14.3,30.58,West,280,3.0,15.0,74,0.00,,,0.00,Wunderground v.1.15,2013-12-09 00:40:00,
2013-12-08 20:50:00,21.5,13.9,30.59,NNW,347,4.0,4.0,72,0.00,,,0.00,Wunderground v.1.15,2013-12-09 00:50:00,
2013-12-08 21:00:00,21.2,13.6,30.59,NW,304,3.0,3.0,72,0.00,,,0.00,Wunderground v.1.15,2013-12-09 01:00:00,
2013-12-08 21:10:00,21.1,13.8,30.59,WNW,288,3.0,15.0,73,0.00,,,0.00,Wunderground v.1.15,2013-12-09 01:10:00,
2013-12-08 21:20:00,20.9,13.3,30.60,WNW,287,4.0,15.0,72,0.00,,,0.00,Wunderground v.1.15,2013-12-09 01:20:00,
2013-12-08 21:30:00,21.1,12.2,30.59,WSW,248,3.0,15.0,68,0.00,,,0.00,Wunderground v.1.15,2013-12-09 01:30:00,
2013-12-08 21:40:00,21.0,10.7,30.60,North,349,4.0,4.0,64,0.00,,,0.00,Wunderground v.1.15,2013-12-09 01:40:00,
2013-12-08 21:50:00,20.8,10.5,30.60,SW,231,4.0,15.0,64,0.00,,,0.00,Wunderground v.1.15,2013-12-09 01:50:00,
2013-12-08 22:00:00,20.6,10.0,30.60,WSW,252,4.0,15.0,63,0.00,,,0.00,Wunderground v.1.15,2013-12-09 02:00:00,
2013-12-08 22:10:00,20.5,9.9,30.59,West,271,5.0,5.0,63,0.00,,,0.00,Wunderground v.1.15,2013-12-09 02:10:00,
2013-12-08 22:20:00,20.4,9.8,30.59,SW,225,3.0,15.0,63,0.00,,,0.00,Wunderground v.1.15,2013-12-09 02:20:00,
2013-12-08 22:30:00,20.4,9.4,30.58,South,177,3.0,3.0,62,0.00,,,0.00,Wunderground v.1.15,2013-12-09 02:30:00,
2013-12-08 22:40:00,20.5,9.2,30.58,West,278,2.0,15.0,61,0.00,,,0.00,Wunderground v.1.15,2013-12-09 02:40:00,
2013-12-08 22:50:00,20.6,9.6,30.59,WSW,252,1.0,15.0,62,0.00,,,0.00,Wunderground v.1.15,2013-12-09 02:50:00,
2013-12-08 23:00:00,20.8,10.5,30.59,West,264,2.0,15.0,64,0.00,,,0.00,Wunderground v.1.15,2013-12-09 03:00:00,
2013-12-08 23:10:00,21.0,10.4,30.59,WSW,257,2.0,15.0,63,0.00,,,0.00,Wunderground v.1.15,2013-12-09 03:10:00,
2013-12-08 23:20:00,20.4,8.7,30.59,WSW,257,3.0,15.0,60,0.00,,,0.00,Wunderground v.1.15,2013-12-09 03:20:00,
2013-12-08 23:30:00,20.2,8.1,30.59,SW,236,3.0,3.0,59,0.00,,,0.00,Wunderground v.1.15,2013-12-09 03:30:00,
2013-12-08 23:40:00,20.1,8.1,30.60,ESE,113,4.0,4.0,59,0.00,,,0.00,Wunderground v.1.15,2013-12-09 03:40:00,
2013-12-08 23:50:00,20.0,8.7,30.61,SW,228,3.0,3.0,61,0.00,,,0.00,Wunderground v.1.15,2013-12-09 03:50:00,